User: anonymous   Login
Location: Unspecified
(0.0000°N, 0.0000°E)
Time: 02:22:21
(UTC+01:00)
Language:

Cosmos 540 Rocket - Orbit

View from above orbital plane
View from above orbital plane
View from above satellite
View from above satellite

Ground track
Ground track

The orbit data is extracted from the following two-line orbital elements,

1 06324U 72104B   14329.68908119  .00000160  00000-0  55544-4 0  4124
2 06324 074.0785 037.4535 0008392 050.7900 063.7907 14.43040319200764
Epoch (UTC): 25 November 2014 16:32:16
Eccentricity: 0.0008392
inclination: 74.0785°
perigee height: 742 km
apogee height: 754 km
right ascension of ascending node: 37.4535°
argument of perigee: 50.7900°
revolutions per day: 14.43040319
mean anomaly at epoch: 63.7907°
orbit number at epoch: 20076

The dashed part of the orbit path shows where the satellite is in the earth's shadow,  

DLR